TimeCST,TemperatureF,Dew PointF,Humidity,Sea Level PressureIn,VisibilityMPH,Wind Direction,Wind SpeedMPH,Gust SpeedMPH,PrecipitationIn,Events,Conditions,WindDirDegrees,DateUTC
12:35 AM,59.0,53.6,82,29.70,10.0,SSW,15.0,-,0.02,,Overcast,200,2012-11-11 06:35:00
12:55 AM,59.0,53.6,82,29.69,10.0,SSW,12.7,-,0.02,,Overcast,200,2012-11-11 06:55:00
1:15 AM,57.2,51.8,82,29.71,10.0,South,16.1,-,0.02,Rain,Rain,190,2012-11-11 07:15:00
1:35 AM,57.2,51.8,82,29.69,10.0,South,15.0,-,0.05,Rain,Light Rain,190,2012-11-11 07:35:00
1:55 AM,57.2,51.8,82,29.70,10.0,South,13.8,-,0.05,Rain,Light Rain,190,2012-11-11 07:55:00
2:15 AM,57.2,51.8,82,29.71,10.0,South,19.6,-,0.05,Rain,Rain,180,2012-11-11 08:15:00
2:35 AM,55.4,51.8,88,29.66,10.0,SSE,13.8,-,0.11,Rain,Rain,150,2012-11-11 08:35:00
2:55 AM,55.4,51.8,88,29.66,10.0,SSE,12.7,-,0.12,Rain,Light Rain,160,2012-11-11 08:55:00
3:15 AM,55.4,51.8,88,29.66,10.0,South,15.0,19.6,N/A,,Mostly Cloudy,170,2012-11-11 09:15:00
3:35 AM,55.4,51.8,88,29.66,10.0,South,10.4,-,N/A,,Mostly Cloudy,170,2012-11-11 09:35:00
3:55 AM,55.4,51.8,88,29.68,10.0,South,10.4,-,0.02,Rain,Rain,190,2012-11-11 09:55:00
4:15 AM,55.4,51.8,88,29.68,10.0,South,12.7,-,0.10,Rain,Heavy Rain,180,2012-11-11 10:15:00
4:35 AM,50.0,46.4,87,29.71,10.0,NW,15.0,24.2,0.20,Rain,Heavy Rain,310,2012-11-11 10:35:00
4:55 AM,44.6,39.2,81,29.74,10.0,NW,18.4,29.9,0.27,Rain,Rain,310,2012-11-11 10:55:00
5:15 AM,41.0,37.4,87,29.73,10.0,NW,18.4,25.3,0.05,Rain,Light Rain,310,2012-11-11 11:15:00
5:35 AM,39.2,35.6,87,29.69,10.0,NNW,16.1,27.6,0.08,Rain,Light Rain,340,2012-11-11 11:35:00
5:55 AM,39.2,35.6,87,29.74,10.0,NNW,10.4,15.0,0.08,Rain,Light Rain,330,2012-11-11 11:55:00
6:15 AM,39.2,35.6,87,29.74,5.0,NNW,11.5,-,0.07,Rain,Rain,330,2012-11-11 12:15:00
6:35 AM,37.4,33.8,87,29.78,4.0,WNW,19.6,25.3,0.12,Rain,Rain,300,2012-11-11 12:35:00
6:55 AM,35.6,32.0,87,29.77,4.0,NW,12.7,16.1,0.17,Rain,Rain,320,2012-11-11 12:55:00
7:35 AM,33.8,30.2,87,29.77,3.0,NNW,15.0,-,0.19,Snow,Light Snow,330,2012-11-11 13:35:00
8:15 AM,33.8,30.2,87,29.81,10.0,NW,18.4,-,N/A,,Overcast,310,2012-11-11 14:15:00
8:35 AM,33.8,28.4,81,29.79,5.0,NNW,12.7,-,0.01,Rain,Light Rain,340,2012-11-11 14:35:00
8:55 AM,32.0,28.4,87,29.79,4.0,NNW,18.4,-,0.04,Rain,Rain,330,2012-11-11 14:55:00
9:35 AM,30.2,26.6,86,29.82,5.0,NW,16.1,-,N/A,,Overcast,310,2012-11-11 15:35:00
9:55 AM,30.2,26.6,86,29.87,7.0,WNW,17.3,28.8,N/A,,Overcast,300,2012-11-11 15:55:00
10:15 AM,30.2,26.6,86,29.83,3.0,NW,16.1,-,N/A,,Overcast,310,2012-11-11 16:15:00
10:35 AM,30.2,26.6,86,29.85,7.0,NW,18.4,-,N/A,,Overcast,310,2012-11-11 16:35:00
10:55 AM,30.2,26.6,86,29.86,4.0,NW,17.3,-,N/A,,Overcast,310,2012-11-11 16:55:00
11:15 AM,28.4,24.8,86,29.88,4.0,NW,17.3,-,N/A,,Overcast,310,2012-11-11 17:15:00
11:35 AM,28.4,24.8,86,29.88,10.0,NW,16.1,23.0,N/A,,Overcast,310,2012-11-11 17:35:00
11:55 AM,28.4,24.8,86,29.87,5.0,NW,16.1,21.9,N/A,,Overcast,310,2012-11-11 17:55:00
12:15 PM,28.4,24.8,86,29.88,10.0,NW,8.1,20.7,N/A,,Overcast,310,2012-11-11 18:15:00
12:35 PM,28.4,24.8,86,29.88,3.0,Calm,Calm,-,N/A,,Overcast,0,2012-11-11 18:35:00
12:55 PM,28.4,24.8,86,29.89,5.0,NW,9.2,23.0,N/A,,Overcast,310,2012-11-11 18:55:00
1:15 PM,28.4,23.0,80,29.89,10.0,NW,15.0,20.7,N/A,,Overcast,320,2012-11-11 19:15:00
1:35 PM,28.4,23.0,80,29.89,10.0,Calm,Calm,-,N/A,,Overcast,0,2012-11-11 19:35:00
1:55 PM,28.4,23.0,80,29.91,10.0,WNW,18.4,-,N/A,,Overcast,300,2012-11-11 19:55:00
2:15 PM,28.4,23.0,80,29.90,10.0,WNW,19.6,-,N/A,,Overcast,300,2012-11-11 20:15:00
2:35 PM,28.4,23.0,80,29.91,10.0,WNW,17.3,26.5,N/A,,Overcast,300,2012-11-11 20:35:00
2:55 PM,30.2,23.0,75,29.91,10.0,NW,16.1,21.9,N/A,,Overcast,310,2012-11-11 20:55:00
3:15 PM,30.2,21.2,69,29.91,10.0,WNW,18.4,28.8,N/A,,Overcast,300,2012-11-11 21:15:00
3:35 PM,30.2,23.0,75,29.94,10.0,WNW,21.9,26.5,N/A,,Overcast,290,2012-11-11 21:35:00
3:55 PM,30.2,23.0,75,29.95,10.0,NW,13.8,19.6,N/A,,Overcast,310,2012-11-11 21:55:00
4:15 PM,30.2,21.2,69,29.97,10.0,WNW,19.6,26.5,N/A,,Scattered Clouds,300,2012-11-11 22:15:00
4:35 PM,28.4,21.2,74,29.98,10.0,WNW,15.0,23.0,N/A,,Clear,300,2012-11-11 22:35:00
4:55 PM,28.4,19.4,69,29.97,10.0,WNW,19.6,25.3,N/A,,Clear,300,2012-11-11 22:55:00
5:15 PM,28.4,19.4,69,30.00,10.0,WNW,12.7,-,N/A,,Clear,290,2012-11-11 23:15:00
5:35 PM,28.4,19.4,69,30.01,10.0,NW,10.4,-,N/A,,Clear,310,2012-11-11 23:35:00
5:55 PM,26.6,19.4,74,30.02,10.0,WNW,12.7,-,N/A,,Clear,300,2012-11-11 23:55:00
6:15 PM,26.6,19.4,74,30.02,10.0,WNW,12.7,-,N/A,,Clear,290,2012-11-12 00:15:00
6:35 PM,26.6,17.6,69,30.04,10.0,WNW,12.7,-,N/A,,Clear,290,2012-11-12 00:35:00
6:55 PM,26.6,17.6,69,30.05,10.0,WNW,15.0,-,N/A,,Clear,290,2012-11-12 00:55:00
7:15 PM,26.6,17.6,69,30.06,10.0,West,9.2,-,N/A,,Clear,280,2012-11-12 01:15:00
7:35 PM,26.6,17.6,69,30.07,10.0,West,10.4,-,N/A,,Clear,280,2012-11-12 01:35:00
7:55 PM,26.6,15.8,64,30.08,10.0,WNW,15.0,-,N/A,,Clear,290,2012-11-12 01:55:00
8:15 PM,24.8,15.8,69,30.09,10.0,West,10.4,-,N/A,,Clear,280,2012-11-12 02:15:00
8:35 PM,24.8,15.8,69,30.09,10.0,West,10.4,-,N/A,,Clear,280,2012-11-12 02:35:00
8:55 PM,24.8,15.8,69,30.10,10.0,West,9.2,-,N/A,,Clear,280,2012-11-12 02:55:00
9:15 PM,24.8,15.8,69,30.10,10.0,West,11.5,-,N/A,,Clear,280,2012-11-12 03:15:00
9:35 PM,24.8,15.8,69,30.11,10.0,West,9.2,-,N/A,,Clear,280,2012-11-12 03:35:00
9:55 PM,23.0,15.8,74,30.12,10.0,West,8.1,-,N/A,,Clear,280,2012-11-12 03:55:00
10:15 PM,23.0,15.8,74,30.12,10.0,West,10.4,-,N/A,,Clear,280,2012-11-12 04:15:00
10:35 PM,24.8,15.8,69,30.12,10.0,Calm,Calm,-,N/A,,Clear,0,2012-11-12 04:35:00
10:55 PM,23.0,15.8,74,30.12,10.0,Calm,Calm,-,N/A,,Clear,0,2012-11-12 04:55:00
11:15 PM,23.0,15.8,74,30.13,10.0,Calm,Calm,-,N/A,,Clear,0,2012-11-12 05:15:00
11:35 PM,23.0,15.8,74,30.13,10.0,Calm,Calm,-,N/A,,Clear,0,2012-11-12 05:35:00
11:55 PM,23.0,15.8,74,30.13,10.0,Calm,Calm,-,N/A,,Clear,0,2012-11-12 05:55:00